Location: Aciu?a
(46.2833°N, 22.4500°E)
Time: 13:39:40
(UTC+00:00)

Okean-O - Pass Details

Date: 25 October 2021
Orbit: 639 x 640 km, 98.2° (Epoch: 07 December)

Event Time Altitude Azimuth Distance (km) Brightness Sun altitude
Exits shadow 16:49:00 25° 91° (E) 1,308 3.6 -14.9°
Maximum altitude 16:50:06 28° 66° (ENE) 1,217 3.5 -15.1°
Drops below altitude 10° 16:53:52 10° 8° (N) 2,043 5.1 -15.7°
Sets 16:56:19 0° 357° (N) 2,957 6.1 -16.1°
